TimeEDT,TemperatureF,Dew PointF,Humidity,Sea Level PressureIn,VisibilityMPH,Wind Direction,Wind SpeedMPH,Gust SpeedMPH,PrecipitationIn,Events,Conditions,WindDirDegrees,DateUTC
12:15 AM,51.8,51.8,100,30.17,10.0,Calm,Calm,-,N/A,,Overcast,0,2014-03-29 04:15:00
12:35 AM,51.8,51.8,100,30.15,10.0,Calm,Calm,-,N/A,,Overcast,0,2014-03-29 04:35:00
12:55 AM,51.8,51.8,100,30.16,7.0,Calm,Calm,-,N/A,,Overcast,0,2014-03-29 04:55:00
1:15 AM,51.8,51.8,100,30.16,7.0,Calm,Calm,-,N/A,,Overcast,0,2014-03-29 05:15:00
1:35 AM,51.8,51.8,100,30.15,7.0,Calm,Calm,-,N/A,,Overcast,0,2014-03-29 05:35:00
1:55 AM,51.8,51.8,100,30.14,7.0,Calm,Calm,-,N/A,,Drizzle,0,2014-03-29 05:55:00
2:15 AM,51.8,51.8,100,30.13,4.0,Calm,Calm,-,N/A,Rain,Light Rain,0,2014-03-29 06:15:00
2:35 AM,51.8,51.8,100,30.12,3.0,Calm,Calm,-,N/A,Rain,Light Rain,0,2014-03-29 06:35:00
2:55 AM,51.8,51.8,100,30.11,5.0,Calm,Calm,-,N/A,,Overcast,0,2014-03-29 06:55:00
3:15 AM,51.8,51.8,100,30.10,3.0,NE,4.6,-,N/A,,Overcast,50,2014-03-29 07:15:00
3:35 AM,50.0,50.0,100,30.08,3.0,Calm,Calm,-,N/A,,Overcast,0,2014-03-29 07:35:00
3:55 AM,50.0,50.0,100,30.07,1.2,NNE,3.5,-,N/A,,Overcast,20,2014-03-29 07:55:00
4:15 AM,50.0,50.0,100,30.07,2.0,North,4.6,-,N/A,,Overcast,360,2014-03-29 08:15:00
4:35 AM,50.0,50.0,100,30.06,2.5,NNE,3.5,-,N/A,,Overcast,20,2014-03-29 08:35:00
4:55 AM,50.0,50.0,100,30.06,4.0,Calm,Calm,-,N/A,,Overcast,0,2014-03-29 08:55:00
5:15 AM,51.8,51.8,100,30.05,3.0,ENE,5.8,-,N/A,,Overcast,60,2014-03-29 09:15:00
5:35 AM,51.8,51.8,100,30.05,1.2,Calm,Calm,-,N/A,,Overcast,0,2014-03-29 09:35:00
5:50 AM,51.8,51.8,100,30.04,0.5,NE,4.6,-,N/A,Fog,Fog,40,2014-03-29 09:50:00
6:15 AM,51.8,51.8,100,30.04,0.8,Calm,Calm,-,N/A,,Overcast,0,2014-03-29 10:15:00
6:35 AM,51.8,51.8,100,30.04,0.5,East,3.5,-,N/A,Fog,Fog,80,2014-03-29 10:35:00
6:55 AM,51.8,51.8,100,30.03,0.5,ENE,3.5,-,0.01,Rain,Light Rain,60,2014-03-29 10:55:00
7:15 AM,51.8,51.8,100,30.03,1.0,NE,3.5,-,N/A,,Drizzle,50,2014-03-29 11:15:00
7:35 AM,51.8,51.8,100,30.04,1.0,Calm,Calm,-,0.01,,Light Drizzle,0,2014-03-29 11:35:00
7:55 AM,51.8,51.8,100,30.04,0.5,Calm,Calm,-,0.02,Rain,Rain,0,2014-03-29 11:55:00
8:15 AM,51.8,51.8,100,30.03,1.2,Calm,Calm,-,0.01,Rain,Heavy Rain,0,2014-03-29 12:15:00
8:35 AM,51.8,51.8,100,30.03,1.0,ENE,4.6,-,0.02,,Heavy Drizzle,60,2014-03-29 12:35:00
8:55 AM,51.8,51.8,100,30.02,1.0,ENE,3.5,-,0.04,,Drizzle,60,2014-03-29 12:55:00
9:15 AM,51.8,51.8,100,30.00,1.0,ENE,4.6,-,0.01,Rain,Rain,60,2014-03-29 13:15:00
9:35 AM,51.8,51.8,100,29.99,1.8,ENE,3.5,-,0.05,Rain,Rain,70,2014-03-29 13:35:00
9:55 AM,51.8,51.8,100,29.97,3.0,NE,4.6,-,0.08,Rain,Rain,50,2014-03-29 13:55:00
10:15 AM,51.8,51.8,100,29.96,4.0,ENE,3.5,-,N/A,,Overcast,60,2014-03-29 14:15:00
10:35 AM,51.8,51.8,100,29.96,4.0,Calm,Calm,-,N/A,Rain,Rain,0,2014-03-29 14:35:00
10:55 AM,53.6,53.6,100,29.95,4.0,ENE,4.6,-,0.03,Rain,Light Rain,70,2014-03-29 14:55:00
11:15 AM,53.6,53.6,100,29.93,4.0,East,4.6,-,0.01,,Light Drizzle,80,2014-03-29 15:15:00
11:35 AM,53.6,53.6,100,29.92,5.0,Calm,Calm,-,0.02,,Drizzle,0,2014-03-29 15:35:00
11:55 AM,53.6,53.6,100,29.90,3.0,ENE,4.6,-,0.03,,Heavy Drizzle,70,2014-03-29 15:55:00
12:15 PM,53.6,53.6,100,29.88,3.0,ENE,4.6,-,0.01,,Drizzle,70,2014-03-29 16:15:00
12:35 PM,55.4,55.4,100,29.87,5.0,NE,3.5,-,0.02,,Heavy Drizzle,50,2014-03-29 16:35:00
12:55 PM,55.4,55.4,100,29.86,5.0,NE,3.5,-,0.03,,Drizzle,40,2014-03-29 16:55:00
1:15 PM,55.4,55.4,100,29.85,2.0,NE,3.5,-,0.02,,Heavy Drizzle,50,2014-03-29 17:15:00
1:35 PM,55.4,55.4,100,29.83,2.5,ENE,3.5,-,0.03,,Drizzle,60,2014-03-29 17:35:00
1:55 PM,57.2,57.2,100,29.81,5.0,ENE,4.6,-,0.03,,Light Drizzle,70,2014-03-29 17:55:00
2:15 PM,57.2,55.4,94,29.79,10.0,NNE,3.5,-,N/A,,Overcast,30,2014-03-29 18:15:00
2:35 PM,55.4,55.4,100,29.79,5.0,Calm,Calm,-,N/A,Rain,Rain,0,2014-03-29 18:35:00
2:55 PM,57.2,57.2,100,29.78,5.0,SSE,4.6,-,0.01,,Drizzle,150,2014-03-29 18:55:00
3:15 PM,57.2,57.2,100,29.77,7.0,Calm,Calm,-,N/A,,Overcast,0,2014-03-29 19:15:00
3:35 PM,59.0,59.0,100,29.76,7.0,Calm,Calm,-,N/A,,Overcast,0,2014-03-29 19:35:00
3:55 PM,59.0,59.0,100,29.74,5.0,SE,3.5,-,0.01,,Light Drizzle,140,2014-03-29 19:55:00
4:15 PM,59.0,59.0,100,29.73,7.0,SSE,5.8,-,N/A,Rain,Light Rain,160,2014-03-29 20:15:00
4:35 PM,60.8,59.0,94,29.72,10.0,South,3.5,-,N/A,,Overcast,170,2014-03-29 20:35:00
4:55 PM,60.8,59.0,94,29.70,10.0,South,4.6,-,N/A,,Overcast,190,2014-03-29 20:55:00
5:15 PM,60.8,59.0,94,29.69,10.0,South,4.6,-,N/A,,Overcast,180,2014-03-29 21:15:00
5:35 PM,60.8,59.0,94,29.69,7.0,South,3.5,-,N/A,Rain,Rain,190,2014-03-29 21:35:00
5:55 PM,60.8,59.0,94,29.68,10.0,South,6.9,-,N/A,,Overcast,190,2014-03-29 21:55:00
6:15 PM,60.8,59.0,94,29.67,10.0,SSW,4.6,-,N/A,,Overcast,200,2014-03-29 22:15:00
6:35 PM,60.8,57.2,88,29.67,10.0,SSW,4.6,-,N/A,,Overcast,210,2014-03-29 22:35:00
6:55 PM,60.8,57.2,88,29.67,10.0,SW,4.6,-,N/A,,Overcast,220,2014-03-29 22:55:00
7:15 PM,59.0,59.0,100,29.67,10.0,Calm,Calm,-,N/A,,Overcast,0,2014-03-29 23:15:00
7:35 PM,59.0,57.2,94,29.68,7.0,West,5.8,-,0.04,Rain,Heavy Rain,260,2014-03-29 23:35:00
7:55 PM,55.4,55.4,100,29.63,7.0,South,6.9,-,0.29,Rain,Light Rain,190,2014-03-29 23:55:00
8:15 PM,55.4,55.4,100,29.64,10.0,SSW,6.9,-,0.01,Rain,Light Rain,210,2014-03-30 00:15:00
8:35 PM,55.4,55.4,100,29.64,7.0,WSW,3.5,-,0.04,Rain,Rain,240,2014-03-30 00:35:00
8:55 PM,53.6,48.2,82,29.65,10.0,WNW,10.4,23.0,0.06,Rain-Thunderstorm,Light Thunderstorms and Rain,290,2014-03-30 00:55:00
9:15 PM,51.8,46.4,82,29.63,10.0,WNW,8.1,20.7,0.02,Rain,Light Rain,290,2014-03-30 01:15:00
9:35 PM,51.8,46.4,82,29.65,10.0,NW,9.2,-,0.02,,Light Drizzle,310,2014-03-30 01:35:00
9:55 PM,50.0,42.8,76,29.68,10.0,WNW,10.4,21.9,0.02,Rain-Thunderstorm,Light Thunderstorms and Rain,300,2014-03-30 01:55:00
10:15 PM,50.0,42.8,76,29.71,10.0,NW,6.9,20.7,N/A,,Overcast,310,2014-03-30 02:15:00
10:35 PM,50.0,41.0,71,29.72,10.0,NW,12.7,18.4,N/A,,Overcast,310,2014-03-30 02:35:00
10:55 PM,48.2,37.4,66,29.71,10.0,NW,13.8,23.0,N/A,,Overcast,320,2014-03-30 02:55:00
11:15 PM,46.4,37.4,71,29.73,10.0,WNW,12.7,19.6,N/A,,Overcast,300,2014-03-30 03:15:00
11:35 PM,44.6,33.8,66,29.73,10.0,NW,18.4,32.2,N/A,,Overcast,310,2014-03-30 03:35:00
11:55 PM,44.6,32.0,61,29.74,10.0,WNW,15.0,29.9,N/A,,Overcast,290,2014-03-30 03:55:00